Location: Brompton
(51.4000°N, 0.5333°E)
Time: 16:50:44
(UTC+00:00)

ERS-1 Rocket - Pass Details

Date: 11 May 2021
Orbit: 753 x 757 km, 98.4° (Epoch: 24 June)

Event Time Altitude Azimuth Distance (km) Brightness Sun altitude
Exits shadow 22:10:19 17° 201° (SSW) 1,851 4.6 -16.9°
Maximum altitude 22:13:48 39° 263° (W) 1,121 4.0 -17.1°
Drops below altitude 10° 22:18:32 10° 332° (NNW) 2,295 6.8 -17.4°
Sets 22:20:59 0° 340° (NNW) 3,226 8.0 -17.5°
